1493971200.75,11409,14.5,73766.8,11.93,-2.71,-2.75,0,*4E
1493971201.94,11410,14.44,73766.3,11.93,-2.87,-2.95,0,*41
1493971203.18,11411,14.44,73762.5,11.91,-2.43,-2.51,0,*42
1493971204.4,11412,14.44,73764.8,11.91,-2.23,-2.31,0,*41
1493971205.67,11413,14.44,73766.5,11.91,-2.55,-2.63,0,*46
1493971206.91,11414,14.44,73766.5,11.91,-2.43,-2.51,0,*47
1493971208.15,11415,14.44,73764.8,11.89,-2.47,-2.55,0,*4F
1493971209.34,11416,14.5,73770.5,11.89,-2.31,-2.43,0,*4A
1493971210.53,11417,14.44,73766.3,11.89,-2.19,-2.35,0,*40
1493971211.73,11418,14.44,73766.3,11.89,-3.79,-3.95,0,*43
1493971212.92,11419,14.44,73766.3,11.85,-4.13,-4.25,0,*49
1493971214.15,11420,14.44,73764.8,11.85,-4.01,-4.13,0,*45
1493971215.38,11421,14.44,73764.8,11.81,-3.55,-3.63,0,*46
1493971216.61,11422,14.44,73764.3,11.79,-3.27,-3.31,0,*40
1493971217.85,11423,14.44,73764.3,11.75,-2.67,-2.83,0,*40
1493971219.07,11424,14.44,73766.8,11.75,-2.31,-2.31,0,*4D
1493971220.29,11425,14.44,73764.8,11.75,-1.79,-1.79,0,*4C
1493971221.51,11426,14.44,73766.5,11.75,-1.59,-1.67,0,*42
1493971222.74,11427,14.44,73766.3,11.79,-1.75,-1.79,0,*4E
1493971223.95,11428,14.44,73764.5,11.75,-2.43,-2.43,0,*41
1493971225.17,11429,14.44,73766.5,11.75,-2.79,-2.79,0,*40
1493971226.36,11430,14.44,73764.0,11.73,-2.31,-2.35,0,*4A
1493971227.56,11431,14.44,73764.8,11.73,-2.19,-2.23,0,*46
1493971228.81,11432,14.5,73768.5,11.73,-2.51,-2.51,0,*4C
1493971230.06,11433,14.44,73762.5,11.73,-2.07,-2.11,0,*4A
1493971231.25,11434,14.44,73764.8,11.73,-1.59,-1.55,0,*46
1493971232.51,11435,14.44,73766.8,11.73,-1.99,-1.99,0,*4B
1493971233.73,11436,14.44,73766.3,11.73,-1.83,-1.75,0,*41
1493971235.0,11437,14.5,73768.5,11.75,-2.55,-2.55,0,*4F
1493971236.26,11438,14.44,73764.5,11.73,-2.11,-2.07,0,*41
1493971237.48,11439,14.44,73766.3,11.73,-2.43,-2.47,0,*43
1493971238.7,11440,14.44,73766.3,11.73,-2.19,-2.11,0,*41
1493971239.95,11441,14.44,73766.3,11.69,-2.55,-2.55,0,*43
1493971241.23,11442,14.44,73762.8,11.71,-2.11,-2.11,0,*49
1493971242.45,11443,14.44,73766.5,11.71,-2.39,-2.35,0,*44
1493971243.67,11444,14.44,73762.8,11.69,-2.27,-2.47,0,*40
1493971244.86,11445,14.44,73766.5,11.69,-3.15,-3.23,0,*42
1493971246.09,11446,14.44,73764.3,11.65,-3.55,-3.67,0,*49
1493971247.31,11447,14.44,73766.0,11.67,-2.83,-2.83,0,*4B
1493971248.56,11448,14.44,73766.0,11.65,-2.71,-2.75,0,*42
1493971249.76,11449,14.5,73766.8,11.63,-3.07,-2.99,0,*47
1493971251.03,11450,14.5,73768.5,11.61,-2.51,-2.47,0,*4C
1493971252.25,11451,14.44,73766.5,11.61,-2.79,-2.79,0,*4A
1493971253.52,11452,14.44,73766.3,11.61,-2.67,-2.67,0,*49
1493971254.73,11453,14.44,73766.5,11.61,-2.27,-2.27,0,*48
1493971256.0,11454,14.5,73768.0,11.61,-2.59,-2.63,0,*46
1493971257.25,11455,14.44,73764.5,11.59,-2.51,-2.47,0,*42
1493971258.51,11456,14.44,73766.0,11.57,-1.91,-1.83,0,*4B
1493971259.76,11457,14.44,73764.8,11.59,-2.03,-2.11,0,*44
1493971260.97,11458,14.44,73764.5,11.57,-3.15,-3.19,0,*4A
1493971262.19,11459,14.5,73766.3,11.57,-3.07,-3.07,0,*47
1493971263.43,11460,14.44,73762.5,11.57,-2.51,-2.31,0,*4B
1493971264.68,11461,14.5,73766.3,11.51,-2.59,-2.47,0,*45
1493971265.92,11462,14.5,73766.8,11.53,-2.19,-2.11,0,*43
1493971267.15,11463,14.44,73764.0,11.53,-2.23,-2.23,0,*4A
1493971268.39,11464,14.44,73764.0,11.51,-2.59,-2.47,0,*40
1493971269.61,11465,14.44,73766.3,11.51,-2.19,-2.11,0,*46
1493971270.81,11466,14.44,73766.8,11.51,-2.35,-2.31,0,*49
1493971272.08,11467,14.44,73766.3,11.53,-2.67,-2.67,0,*4E
1493971273.28,11468,14.44,73764.3,11.51,-3.19,-3.11,0,*4B
1493971274.5,11469,14.5,73770.8,11.47,-3.51,-3.39,0,*4B
1493971275.7,11470,14.5,73766.8,11.47,-3.27,-3.19,0,*40
1493971276.94,11471,14.44,73766.5,11.47,-3.43,-3.43,0,*4C
1493971278.14,11472,14.5,73768.5,11.43,-3.31,-3.27,0,*4C
1493971279.37,11473,14.44,73764.8,11.43,-3.95,-4.01,0,*40
1493971280.56,11474,14.5,73770.0,11.43,-3.07,-3.07,0,*4D
1493971281.84,11475,14.44,73766.5,11.41,-2.47,-2.47,0,*4E
1493971283.05,11476,14.5,73768.0,11.41,-2.27,-2.27,0,*4D
1493971284.27,11477,14.44,73766.8,11.41,-2.87,-2.87,0,*4C
1493971285.48,11478,14.5,73768.3,11.39,-3.79,-3.91,0,*4A
1493971286.68,11479,14.5,73768.8,11.35,-4.05,-4.05,0,*41
1493971287.93,11480,14.44,73764.8,11.35,-3.63,-3.63,0,*47
1493971289.14,11481,14.44,73768.0,11.31,-3.23,-3.23,0,*42
1493971290.39,11482,14.5,73766.3,11.29,-3.47,-3.47,0,*48
1493971291.59,11483,14.5,73770.3,11.29,-3.15,-3.03,0,*4E
1493971292.81,11484,14.44,73766.5,11.29,-3.51,-3.39,0,*40
1493971294.03,11485,14.44,73764.8,11.25,-3.75,-3.67,0,*40
1493971295.25,11486,14.44,73768.0,11.27,-3.11,-3.11,0,*42
1493971296.46,11487,14.5,73768.8,11.25,-3.91,-3.95,0,*45
1493971297.7,11488,14.44,73766.3,11.21,-3.43,-3.47,0,*4E
1493971298.9,11489,14.5,73768.5,11.21,-3.03,-3.03,0,*4B
1493971300.13,11490,14.5,73770.3,11.21,-2.79,-2.67,0,*4C
1493971301.33,11491,14.44,73766.3,11.21,-3.07,-3.07,0,*42
1493971302.53,11492,14.44,73766.3,11.21,-2.91,-2.83,0,*42
1493971303.81,11493,14.5,73766.8,11.19,-3.59,-3.51,0,*43
1493971305.05,11494,14.5,73766.5,11.17,-3.67,-3.63,0,*46
1493971306.28,11495,14.44,73764.8,11.15,-3.27,-3.27,0,*41
1493971307.53,11496,14.44,73764.0,11.13,-3.55,-3.59,0,*48
1493971308.78,11497,14.44,73766.5,11.13,-3.47,-3.59,0,*4A
1493971309.97,11498,14.44,73766.3,11.13,-3.15,-3.15,0,*4A
1493971311.19,11499,14.44,73764.0,11.11,-3.19,-3.19,0,*49
1493971312.42,11500,14.5,73768.0,11.11,-2.35,-2.43,0,*49
1493971313.64,11501,14.44,73764.5,11.11,-3.19,-3.19,0,*49
1493971314.84,11502,14.44,73764.0,11.05,-3.15,-3.15,0,*4F
1493971316.06,11503,14.5,73766.5,11.07,-3.11,-3.11,0,*4C
1493971317.28,11504,14.5,73768.8,11.07,-3.07,-3.19,0,*44
1493971318.51,11505,14.5,73770.3,11.03,-3.11,-3.11,0,*4E
1493971319.71,11506,14.5,73770.8,11.05,-2.87,-2.91,0,*4C
1493971320.91,11507,14.5,73766.3,11.05,-2.79,-2.87,0,*4B
1493971322.14,11508,14.44,73764.0,11.03,-3.27,-3.39,0,*4C
1493971323.34,11509,14.44,73768.0,11.01,-3.27,-3.35,0,*43
1493971324.55,11510,14.44,73768.8,10.99,-3.83,-3.91,0,*4B
1493971325.79,11511,14.5,73768.8,10.99,-3.31,-3.43,0,*4C
1493971326.99,11512,14.5,73768.3,10.99,-3.07,-3.19,0,*45
1493971328.21,11513,14.5,73770.3,10.95,-2.87,-2.91,0,*40
1493971329.39,11514,14.44,73766.5,10.97,-3.35,-3.39,0,*4E
1493971330.61,11515,14.5,73768.3,10.97,-3.71,-3.75,0,*47
1493971331.82,11516,14.5,73770.3,10.95,-3.27,-3.39,0,*4D
1493971333.08,11517,14.5,73770.0,10.91,-3.43,-3.47,0,*43
1493971334.31,11518,14.44,73766.8,10.93,-3.55,-3.59,0,*46
1493971335.5,11519,14.44,73768.8,10.89,-3.35,-3.35,0,*40
1493971336.69,11520,14.44,73768.3,10.89,-3.19,-3.31,0,*40
1493971337.88,11521,14.5,73768.0,10.85,-3.75,-3.91,0,*4D
1493971339.08,11522,14.44,73766.3,10.85,-3.79,-3.91,0,*42
1493971340.31,11523,14.44,73770.0,10.83,-3.39,-3.55,0,*49
1493971341.52,11524,14.5,73772.0,10.83,-2.91,-3.03,0,*4E
1493971342.7,11525,14.5,73770.5,10.81,-2.79,-2.91,0,*41
1493971343.91,11526,14.5,73770.3,10.81,-2.63,-2.79,0,*4F
1493971345.1,11527,14.5,73768.0,10.81,-2.79,-2.95,0,*47
1493971346.31,11528,14.5,73770.3,10.81,-2.71,-2.91,0,*44
1493971347.52,11529,14.5,73768.8,10.81,-2.39,-2.55,0,*41
1493971348.73,11530,14.5,73770.8,10.81,-2.31,-2.55,0,*41
1493971349.94,11531,14.44,73766.5,10.81,-2.67,-2.83,0,*48
1493971351.15,11532,14.44,73764.5,10.81,-2.43,-2.63,0,*43
1493971352.36,11533,14.5,73770.0,10.81,-2.51,-2.79,0,*4A
1493971353.6,11534,14.44,73766.8,10.81,-2.51,-2.71,0,*45
1493971354.87,11535,14.5,73768.0,10.79,-2.51,-2.71,0,*43
1493971356.1,11536,14.44,73766.0,10.77,-2.67,-2.75,0,*4F
1493971357.37,11537,14.5,73768.5,10.79,-2.55,-2.71,0,*45
1493971358.55,11538,14.44,73764.5,10.77,-2.99,-3.23,0,*42
1493971359.78,11539,14.5,73770.5,10.77,-2.55,-2.71,0,*45
1493971360.96,11540,14.44,73764.8,10.77,-2.83,-3.11,0,*47
1493971362.2,11541,14.5,73768.0,10.75,-2.59,-2.87,0,*4D
1493971363.44,11542,14.44,73768.0,10.75,-2.27,-2.75,0,*4A
1493971364.65,11543,14.44,73764.3,10.73,-1.87,-2.35,0,*40
1493971365.86,11544,14.5,73768.0,10.73,-1.83,-2.27,0,*40
1493971367.1,11545,14.44,73766.0,10.73,-2.11,-2.59,0,*40
1493971368.32,11546,14.5,73768.0,10.73,-1.83,-2.39,0,*4D
1493971369.55,11547,14.5,73768.0,10.73,-1.47,-1.95,0,*41
1493971370.79,11548,14.5,73770.8,10.73,-1.35,-1.87,0,*48
1493971372.03,11549,14.5,73770.3,10.73,-1.47,-2.03,0,*43
1493971373.27,11550,14.5,73768.3,10.73,-1.39,-2.11,0,*41
1493971374.48,11551,14.5,73768.3,10.73,-1.59,-2.11,0,*46
1493971375.69,11552,14.5,73770.8,10.71,-1.75,-2.39,0,*43
1493971376.94,11553,14.5,73768.3,10.71,-1.87,-2.39,0,*4F
1493971378.15,11554,14.5,73772.5,10.71,-1.79,-2.19,0,*4B
1493971379.4,11555,14.5,73770.8,10.71,-2.15,-2.55,0,*4B
1493971380.58,11556,14.5,73768.5,10.69,-2.19,-2.79,0,*43
1493971381.8,11557,14.5,73770.8,10.69,-1.87,-2.39,0,*42
1493971383.01,11558,14.5,73770.8,10.69,-1.91,-2.39,0,*4A
1493971384.23,11559,14.5,73768.5,10.69,-2.27,-2.63,0,*4A
1493971385.45,11560,14.5,73770.8,10.67,-2.31,-2.67,0,*4D
1493971386.69,11561,14.5,73768.3,10.63,-2.07,-2.59,0,*40
1493971387.88,11562,14.5,73770.3,10.63,-2.15,-2.83,0,*47
1493971389.13,11563,14.5,73770.3,10.63,-2.11,-2.51,0,*4D
1493971390.34,11564,14.44,73764.8,10.63,-1.59,-1.99,0,*42
1493971391.58,11565,14.5,73768.3,10.61,-1.63,-2.07,0,*4C
1493971392.86,11566,14.5,73770.8,10.61,-2.11,-2.51,0,*4A
1493971394.08,11567,14.5,73774.3,10.59,-1.99,-2.43,0,*40
1493971395.27,11568,14.5,73768.5,10.59,-1.67,-2.15,0,*4D
1493971396.48,11569,14.5,73770.5,10.59,-1.51,-1.99,0,*4E
1493971397.73,11570,14.5,73768.5,10.59,-1.43,-1.99,0,*45
1493971398.92,11571,14.5,73768.0,10.59,-1.55,-2.15,0,*44
1493971400.14,11572,14.5,73768.8,10.57,-1.21,-1.79,0,*43
1493971401.38,11573,14.5,73768.5,10.59,-0.93,-1.43,0,*7D
1493971402.58,11574,14.5,73768.0,10.59,-1.17,-1.75,0,*42
1493971403.77,11575,14.5,73768.8,10.59,-0.81,-1.25,0,*78
1493971405.03,11576,14.5,73768.0,10.57,-0.97,-1.47,0,*76
1493971406.27,11577,14.5,73768.8,10.57,-2.03,-2.35,0,*4E
1493971407.52,11578,14.5,73770.8,10.55,-1.05,-1.43,0,*44
1493971408.77,11579,14.5,73770.0,10.55,-1.05,-1.43,0,*45
1493971409.98,11580,14.5,73770.8,10.57,-0.81,-1.17,0,*7D
1493971411.2,11581,14.5,73770.3,10.55,-0.73,-1.09,0,*7C
1493971412.4,11582,14.5,73768.5,10.55,-0.57,-0.93,0,*4B
1493971413.61,11583,14.5,73770.8,10.55,-0.81,-1.09,0,*73
1493971414.85,11584,14.5,73768.0,10.57,-0.81,-0.97,0,*40
1493971416.06,11585,14.5,73770.0,10.55,-0.73,-1.09,0,*78
1493971417.3,11586,14.5,73768.5,10.57,-0.69,-1.05,0,*7E
1493971418.52,11587,14.5,73768.0,10.57,-0.69,-0.93,0,*41
1493971419.73,11588,14.5,73772.0,10.57,-0.41,-0.69,0,*41
1493971420.94,11589,14.5,73770.3,10.55,-0.45,-0.85,0,*44
1493971422.15,11590,14.5,73770.8,10.55,-0.85,-1.17,0,*7A
1493971423.36,11591,14.5,73770.8,10.55,-0.97,-1.29,0,*75
1493971424.59,11592,14.5,73770.8,10.55,-1.17,-1.47,0,*47
1493971425.81,11593,14.5,73768.8,10.53,-0.61,-0.89,0,*43
1493971427.01,11594,14.5,73770.3,10.53,-0.61,-0.77,0,*45
1493971428.22,11595,14.5,73770.0,10.53,-0.33,-0.45,0,*42
1493971429.43,11596,14.5,73770.8,10.53,-0.11,-0.37,0,*44
1493971430.63,11597,14.5,73770.3,10.53,-0.45,-0.65,0,*43
1493971431.87,11598,14.5,73772.0,10.53,-0.27,-0.49,0,*46
1493971433.11,11599,14.5,73774.3,10.53,-0.73,-1.09,0,*73
1493971434.33,11600,14.5,73770.5,10.53,-0.65,-0.85,0,*42
1493971435.56,11601,14.5,73774.5,10.53,-0.73,-0.97,0,*47
1493971436.78,11602,14.5,73768.3,10.51,-1.05,-1.25,0,*4E
1493971438.03,11603,14.5,73772.5,10.53,-1.01,-1.21,0,*4D
1493971439.24,11604,14.5,73770.8,10.51,-1.35,-1.55,0,*4C
1493971440.46,11605,14.5,73772.5,10.51,-1.25,-1.39,0,*46
1493971441.68,11606,14.5,73774.0,10.51,-1.43,-1.63,0,*4A
1493971442.92,11607,14.5,73770.0,10.49,-1.51,-1.87,0,*4B
1493971444.15,11608,14.5,73774.8,10.47,-2.03,-2.31,0,*40
1493971445.42,11609,14.5,73774.5,10.41,-2.47,-2.71,0,*43
1493971446.66,11610,14.5,73768.3,10.41,-2.63,-2.87,0,*44
1493971447.91,11611,14.5,73772.3,10.37,-1.99,-2.15,0,*49
1493971449.16,11612,14.5,73774.0,10.37,-1.01,-1.25,0,*4B
1493971450.41,11613,14.5,73772.0,10.37,-1.17,-1.35,0,*4C
1493971451.65,11614,14.5,73778.5,10.37,-1.47,-1.79,0,*46
1493971452.9,11615,14.5,73772.3,10.35,-1.29,-1.43,0,*44
1493971454.11,11616,14.5,73772.8,10.33,-1.79,-1.91,0,*4B
1493971455.36,11617,14.5,73772.0,10.35,-1.39,-1.29,0,*4B
1493971456.54,11618,14.5,73768.8,10.33,-0.69,-0.77,0,*4C
1493971457.75,11619,14.5,73772.5,10.33,-0.97,-1.17,0,*7B
1493971458.95,11620,14.5,73774.3,10.33,-1.17,-1.17,0,*48
1493971460.13,11621,14.5,73772.0,10.33,-0.65,-0.77,0,*4A
1493971461.37,11622,14.5,73772.3,10.31,-1.25,-1.35,0,*49
1493971462.62,11623,14.5,73772.3,10.31,-1.35,-1.55,0,*4F
1493971463.83,11624,14.5,73774.0,10.29,-1.35,-1.51,0,*45
1493971465.05,11625,14.5,73770.3,10.31,-1.59,-1.75,0,*41
1493971466.26,11626,14.5,73772.3,10.29,-1.13,-1.17,0,*41
1493971467.5,11627,14.5,73772.5,10.29,-1.01,-1.13,0,*47
1493971468.75,11628,14.5,73774.0,10.27,-1.05,-1.17,0,*46
1493971469.97,11629,14.5,73772.5,10.25,-0.93,-0.93,0,*46
1493971471.22,11630,14.5,73772.3,10.27,-1.21,-1.43,0,*48
1493971472.44,11631,14.5,73776.3,10.25,-1.43,-1.63,0,*4D
1493971473.62,11632,14.5,73770.3,10.25,-1.51,-1.55,0,*48
1493971474.83,11633,14.5,73772.3,10.25,-0.81,-0.89,0,*45
1493971476.05,11634,14.5,73776.0,10.25,-1.33,-1.43,0,*4D
1493971477.28,11635,14.5,73776.3,10.23,-1.13,-1.25,0,*48
1493971478.52,11636,14.5,73774.5,10.23,-1.67,-1.87,0,*40
1493971479.72,11637,14.5,73774.0,10.21,-1.55,-1.67,0,*4C
1493971480.94,11638,14.5,73776.8,10.21,-1.35,-1.67,0,*45
1493971482.16,11639,14.5,73772.0,10.21,-1.75,-1.83,0,*4A
1493971483.38,11640,14.5,73778.8,10.21,-1.33,-1.35,0,*4B
1493971484.62,11641,14.5,73774.3,10.17,-1.91,-2.11,0,*42
1493971485.84,11642,14.5,73774.5,10.15,-1.63,-1.63,0,*48
1493971487.11,11643,14.5,73774.3,10.15,-1.43,-1.43,0,*49
1493971488.33,11644,14.5,73772.8,10.15,-0.81,-0.81,0,*4E
1493971489.54,11645,14.5,73774.0,10.15,-0.69,-0.81,0,*49
1493971490.73,11646,14.5,73774.0,10.17,-1.63,-1.71,0,*4D
1493971491.92,11647,14.5,73774.8,10.13,-2.19,-2.43,0,*44
1493971493.17,11648,14.5,73774.0,10.11,-2.07,-2.31,0,*43
1493971494.4,11649,14.5,73774.8,10.07,-1.59,-1.71,0,*4A
1493971495.64,11650,14.5,73776.0,10.09,-1.05,-1.09,0,*4A
1493971496.91,11651,14.5,73776.8,10.07,-0.89,-1.01,0,*78
1493971498.15,11652,14.5,73776.3,10.09,-1.35,-1.47,0,*41
1493971499.34,11653,14.5,73774.0,10.09,-1.59,-1.79,0,*47
1493971500.59,11654,14.5,73772.3,10.07,-2.27,-2.47,0,*4A
1493971501.84,11655,14.5,73776.0,10.07,-2.27,-2.51,0,*4C
1493971503.03,11656,14.5,73774.3,10.03,-2.19,-2.43,0,*45
1493971504.22,11657,14.5,73774.8,10.03,-1.29,-1.33,0,*40
1493971505.4,11658,14.5,73772.3,10.03,-0.53,-0.69,0,*4D
1493971506.58,11659,14.5,73776.5,10.03,-0.41,-0.53,0,*46
1493971507.77,11660,14.5,73772.8,10.03,-0.69,-0.77,0,*40
1493971508.95,11661,14.5,73772.8,10.03,-0.41,-0.53,0,*4D
1493971510.14,11662,14.5,73774.5,10.03,-0.07,-0.15,0,*7E
1493971511.32,11663,14.5,73772.3,10.05,-0.15,-0.07,0,*79
1493971512.5,11664,14.5,73776.5,10.03,-0.03,-0.03,0,*4B
1493971513.68,11665,14.5,73770.3,10.05,-0.65,-0.65,0,*4C
1493971514.92,11666,14.5,73774.0,10.07,-0.23,-0.33,0,*4C
1493971516.16,11667,14.5,73772.5,10.09,-0.93,-1.05,0,*7C
1493971517.38,11668,14.5,73774.0,10.07,-0.77,-0.73,0,*47
1493971518.59,11669,14.5,73774.3,10.07,-0.77,-0.77,0,*42
1493971519.78,11670,14.5,73774.0,10.05,-0.45,-0.57,0,*4B
1493971521.04,11671,14.5,73778.3,10.07,-0.27,-0.27,0,*4B
1493971522.28,11672,14.5,73774.5,10.07,-0.15,-0.27,0,*49
1493971523.49,11673,14.5,73772.8,10.09,-0.23,-0.29,0,*4D
1493971524.68,11674,14.5,73776.0,10.09,-0.11,-0.11,0,*40
1493971525.87,11675,14.5,73776.3,10.09,0.13,0.05,0,*76
1493971527.04,11676,14.5,73772.8,10.09,0.05,0.05,0,*42
1493971528.25,11677,14.5,73776.5,10.09,0.13,0.17,0,*47
1493971529.47,11678,14.5,73778.0,10.09,0.29,0.25,0,*40
1493971530.68,11679,14.56,73776.5,10.11,0.01,0.13,0,*77
1493971531.85,11680,14.5,73774.5,10.13,-0.03,0.05,0,*6B
1493971533.03,11681,14.5,73772.8,10.13,-0.15,-0.29,0,*4E
1493971534.22,11682,14.5,73774.8,10.13,-0.45,-0.53,0,*45
1493971535.42,11683,14.5,73776.5,10.11,-0.61,-0.57,0,*44
1493971536.64,11684,14.5,73774.5,10.11,-0.45,-0.33,0,*47
1493971537.82,11685,14.5,73772.5,10.13,-0.15,-0.19,0,*49
1493971539.04,11686,14.56,73776.5,10.11,-0.69,-0.69,0,*44
1493971540.3,11687,14.5,73774.0,10.11,-0.97,-0.93,0,*41
1493971541.56,11688,14.5,73772.5,10.11,-0.93,-0.85,0,*4D
1493971542.77,11689,14.56,73780.3,10.11,-0.69,-0.61,0,*43
1493971543.98,11690,14.5,73772.0,10.11,-0.73,-0.61,0,*40
1493971545.19,11691,14.56,73778.3,10.11,-0.11,-0.07,0,*75
1493971546.37,11692,14.5,73776.0,10.13,-0.29,-0.29,0,*43
1493971547.63,11693,14.56,73778.0,10.11,-0.97,-0.93,0,*44
1493971548.88,11694,14.5,73776.5,10.11,-1.21,-1.13,0,*46
1493971550.1,11695,14.5,73772.8,10.11,-1.33,-1.33,0,*46
1493971551.3,11696,14.56,73776.8,10.09,-1.33,-1.21,0,*4F
1493971552.51,11697,14.5,73776.3,10.09,-0.85,-0.81,0,*49
1493971553.72,11698,14.5,73772.5,10.07,-0.49,-0.37,0,*45
1493971554.91,11699,14.5,73772.3,10.09,-0.37,-0.45,0,*46
1493971556.15,11700,14.5,73774.0,10.09,-1.05,-0.97,0,*78
1493971557.4,11701,14.56,73776.3,10.07,-1.17,-1.09,0,*42
1493971558.62,11702,14.56,73776.3,10.07,-0.77,-0.77,0,*4E
1493971559.88,11703,14.56,73776.3,10.07,-0.27,-0.23,0,*4B
1493971561.06,11704,14.5,73774.8,10.09,-0.11,-0.07,0,*71
1493971562.27,11705,14.5,73774.5,10.09,-0.29,-0.23,0,*4D
1493971563.48,11706,14.5,73776.0,10.07,-0.37,-0.37,0,*4A
1493971564.69,11707,14.56,73776.8,10.07,-0.61,-0.49,0,*41
1493971565.9,11708,14.56,73774.5,10.07,-0.15,-0.03,0,*73
1493971567.12,11709,14.5,73772.3,10.09,0.29,0.41,0,*45
1493971568.33,11710,14.56,73774.8,10.09,0.29,0.41,0,*4D
1493971569.51,11711,14.5,73772.0,10.09,-0.07,0.05,0,*6D
1493971570.68,11712,14.5,73772.0,10.13,-0.07,-0.03,0,*4E
1493971571.89,11713,14.56,73776.5,10.11,-0.33,-0.33,0,*49
1493971573.13,11714,14.5,73772.3,10.11,-0.29,-0.23,0,*44
1493971574.34,11715,14.56,73776.5,10.11,-0.37,-0.29,0,*40
1493971575.56,11716,14.5,73772.8,10.11,-0.19,-0.19,0,*4C
1493971576.78,11717,14.56,73772.8,10.11,-0.73,-0.73,0,*4D
1493971578.02,11718,14.56,73774.3,10.11,-0.23,-0.19,0,*4B
1493971579.21,11719,14.5,73772.3,10.11,0.01,0.05,0,*47
1493971580.45,11720,14.5,73774.0,10.11,0.13,0.29,0,*40
1493971581.66,11721,14.56,73776.5,10.11,-0.07,-0.07,0,*48
1493971582.83,11722,14.56,73778.8,10.13,-0.07,-0.03,0,*4D
1493971584.0,11723,14.56,73774.8,10.13,-0.03,0.05,0,*63
1493971585.19,11724,14.56,73776.0,10.13,-0.69,-0.65,0,*43
1493971586.36,11725,14.5,73772.8,10.13,0.05,0.09,0,*42
1493971587.6,11726,14.56,73774.8,10.11,0.37,0.41,0,*4E
1493971588.82,11727,14.56,73772.8,10.13,0.51,0.51,0,*4C
1493971590.03,11728,14.56,73776.5,10.13,0.17,0.33,0,*45
1493971591.23,11729,14.56,73774.8,10.15,0.05,0.09,0,*48
1493971592.44,11730,14.56,73776.0,10.15,0.43,0.59,0,*47
1493971593.66,11731,14.56,73774.5,10.17,0.21,0.25,0,*4B
1493971594.87,11732,14.56,73776.5,10.17,0.21,0.33,0,*4F
1493971596.07,11733,14.56,73776.3,10.17,0.37,0.43,0,*4E
1493971597.29,11734,14.5,73772.3,10.17,0.47,0.55,0,*49
1493971598.51,11735,14.56,73774.8,10.17,0.33,0.47,0,*48
1493971599.72,11736,14.56,73776.0,10.21,0.33,0.47,0,*4E
1493971600.97,11737,14.56,73774.5,10.23,0.59,0.59,0,*4E
1493971602.18,11738,14.56,73772.5,10.21,0.67,0.75,0,*40
1493971603.42,11739,14.56,73778.5,10.23,0.67,0.79,0,*4F
1493971604.66,11740,14.56,73778.0,10.23,0.51,0.59,0,*46
1493971605.9,11741,14.5,73774.0,10.23,0.41,0.37,0,*4E
1493971607.12,11742,14.56,73776.8,10.25,0.41,0.51,0,*4B
1493971608.36,11743,14.56,73778.8,10.27,0.21,0.29,0,*41
1493971609.58,11744,14.56,73772.0,10.25,0.21,0.33,0,*4F
1493971610.82,11745,14.56,73776.5,10.27,0.21,0.21,0,*4F
1493971612.04,11746,14.56,73774.8,10.27,-0.03,-0.15,0,*7B
1493971613.25,11747,14.56,73774.0,10.27,-0.33,-0.41,0,*48
1493971614.46,11748,14.56,73776.0,10.27,-0.15,-0.15,0,*42
1493971615.68,11749,14.56,73774.8,10.27,-0.41,-0.33,0,*46
1493971616.91,11750,14.56,73774.8,10.27,-0.81,-0.89,0,*43
1493971618.14,11751,14.56,73772.8,10.25,-0.89,-0.93,0,*43
1493971619.38,11752,14.56,73778.8,10.25,-0.97,-1.05,0,*71
1493971620.6,11753,14.56,73778.3,10.25,-0.89,-0.89,0,*4A
1493971621.79,11754,14.56,73776.0,10.21,-0.69,-0.73,0,*42
1493971623.04,11755,14.56,73776.5,10.23,-1.25,-1.35,0,*4B
1493971624.23,11756,14.56,73774.3,10.21,-1.55,-1.67,0,*4A
1493971625.44,11757,14.56,73774.8,10.21,-1.25,-1.13,0,*4F
1493971626.67,11758,14.56,73774.5,10.15,-1.29,-1.21,0,*4A
1493971627.94,11759,14.56,73774.5,10.15,-1.09,-1.05,0,*4F
1493971629.19,11760,14.56,73776.0,10.15,-0.93,-0.93,0,*49
1493971630.47,11761,14.56,73776.0,10.11,-1.47,-1.43,0,*48
1493971631.67,11762,14.56,73772.8,10.13,-0.81,-0.89,0,*45
1493971632.86,11763,14.56,73772.5,10.13,-0.41,-0.33,0,*49
1493971634.07,11764,14.56,73774.8,10.11,-0.29,-0.29,0,*49
1493971635.26,11765,14.56,73774.5,10.13,-0.33,-0.33,0,*4A
1493971636.47,11766,14.56,73776.5,10.11,-0.57,-0.45,0,*48
1493971637.7,11767,14.56,73776.3,10.13,-0.93,-1.01,0,*72
1493971638.93,11768,14.56,73772.3,10.11,-1.25,-1.21,0,*41
1493971640.13,11769,14.56,73776.8,10.11,-0.61,-0.65,0,*40
1493971641.34,11770,14.56,73774.5,10.07,-0.61,-0.61,0,*4B
1493971642.52,11771,14.56,73774.3,10.09,-0.49,-0.45,0,*48
1493971643.71,11772,14.56,73778.0,10.09,-0.19,-0.19,0,*47
1493971644.92,11773,14.56,73774.8,10.09,-0.19,-0.23,0,*4F
1493971646.1,11774,14.56,73778.0,10.09,-0.45,-0.33,0,*40
1493971647.29,11775,14.56,73776.5,10.09,-0.69,-0.69,0,*40
1493971648.53,11776,14.56,73778.8,10.09,-1.05,-0.97,0,*79
1493971649.72,11777,14.56,73782.0,10.09,-0.69,-0.49,0,*40
1493971650.9,11778,14.56,73774.3,10.09,-0.45,-0.45,0,*4D
1493971652.08,11779,14.56,73774.5,10.09,-0.69,-0.57,0,*41
1493971653.29,11780,14.56,73776.3,10.07,-0.65,-0.61,0,*40
1493971654.53,11781,14.56,73774.5,10.07,-1.71,-1.71,0,*45
1493971655.75,11782,14.56,73772.0,10.05,-1.91,-1.79,0,*42
1493971656.94,11783,14.56,73778.5,10.05,-0.69,-0.65,0,*49
1493971658.12,11784,14.56,73772.8,10.03,-0.37,-0.37,0,*44
1493971659.37,11785,14.56,73776.0,10.03,-1.39,-1.43,0,*48
1493971660.56,11786,14.56,73774.0,10.03,-0.69,-0.69,0,*46
1493971661.74,11787,14.56,73772.8,10.03,-0.53,-0.45,0,*40
1493971662.92,11788,14.56,73772.8,10.03,-0.53,-0.45,0,*4F
1493971664.11,11789,14.56,73776.8,10.03,-0.81,-0.69,0,*4F
1493971665.32,11790,14.56,73776.8,10.05,-0.27,-0.19,0,*4A
1493971666.51,11791,14.56,73778.0,10.03,0.05,0.17,0,*73
1493971667.7,11792,14.5,73772.3,10.05,-0.53,-0.57,0,*41
1493971668.89,11793,14.56,73776.3,10.03,-0.69,-0.77,0,*4D
1493971670.07,11794,14.56,73774.0,10.03,-0.69,-0.57,0,*48
1493971671.28,11795,14.56,73774.5,10.01,-0.69,-0.73,0,*4D
1493971672.49,11796,14.56,73776.0,9.99,-1.21,-1.13,0,*7D
1493971673.7,11797,14.56,73776.5,10.01,-0.29,-0.33,0,*4F
1493971674.93,11798,14.56,73772.5,10.01,0.13,0.17,0,*4F
1493971676.17,11799,14.56,73776.0,10.01,0.37,0.37,0,*4A
1493971677.35,11800,14.56,73778.3,10.05,-0.29,-0.07,0,*7D
1493971678.59,11801,14.56,73776.8,10.03,-1.13,-1.13,0,*46
1493971679.76,11802,14.56,73774.8,10.03,-0.29,-0.29,0,*45
1493971680.94,11803,14.56,73776.3,10.03,-0.03,-0.03,0,*44
1493971682.18,11804,14.56,73776.3,10.03,-1.01,-1.05,0,*47
1493971683.37,11805,14.56,73774.0,10.03,-0.29,-0.37,0,*4D
1493971684.56,11806,14.56,73778.8,10.01,-0.11,0.01,0,*5F
1493971685.75,11807,14.56,73776.3,10.03,-0.19,-0.15,0,*4C
1493971686.94,11808,14.56,73780.0,10.03,-0.19,-0.19,0,*4F
1493971688.11,11809,14.56,73778.0,10.03,-0.07,-0.07,0,*4E
1493971689.29,11810,14.56,73774.0,10.05,-0.07,-0.03,0,*44
1493971690.51,11811,14.56,73774.8,10.05,0.33,0.33,0,*41
1493971691.72,11812,14.56,73776.3,10.03,-0.19,-0.27,0,*49
1493971692.89,11813,14.56,73776.0,10.03,-0.29,-0.29,0,*45
1493971694.08,11814,14.56,73778.3,10.03,-0.15,-0.19,0,*4E
1493971695.24,11815,14.56,73772.8,10.03,0.09,0.05,0,*4F
1493971696.43,11816,14.56,73774.5,10.05,-0.53,-0.57,0,*42
1493971697.67,11817,14.56,73778.5,10.03,-0.93,-1.01,0,*7B
1493971698.84,11818,14.56,73776.3,10.05,0.05,0.05,0,*48
1493971700.03,11819,14.56,73778.5,10.05,-0.15,-0.19,0,*45
1493971701.22,11820,14.56,73778.5,10.03,-0.15,-0.19,0,*49
1493971702.4,11821,14.56,73778.5,10.03,-0.41,-0.45,0,*40
1493971703.57,11822,14.56,73778.0,10.03,-0.07,0.05,0,*68
1493971704.79,11823,14.56,73774.3,10.05,0.33,0.33,0,*40
1493971706.01,11824,14.56,73778.0,10.03,0.21,0.29,0,*49
1493971707.23,11825,14.56,73776.8,10.05,0.21,0.29,0,*4E
1493971708.45,11826,14.56,73776.3,10.05,0.59,0.67,0,*48
1493971709.68,11827,14.56,73776.0,10.07,0.95,1.05,0,*7E